BAW88LP EGLL-EDDV

Flight info

Callsign BAW88LP
Flight time 1h 2m
Altitude 37000
Route BPK6J BPK Q295 BRAIN M197 REDFA DCT TACHA DCT RKN L980 JUWGI Q234 EXPUH M170 ZEPHE T463 NIE
Aircraft A320/M-SDE3FGHIRWY/LB1

Departure

Time 2026-05-07 06:54
Airport London Heathrow Airport (EGLL)

Arrival

Time 2026-05-07 07:56
Airport Hannover Airport (EDDV)
Time Latitude Longitude Altitude Speed Heading
2026-05-07 06:21 51.46933 -0.45972 87 ft 0 kts 57°
2026-05-07 06:42 51.46930 -0.45980 86 ft 2 kts 57°
2026-05-07 06:43 51.46922 -0.45999 86 ft 1 kts 57°
2026-05-07 06:43 51.46913 -0.46018 85 ft 2 kts 40°
2026-05-07 06:43 51.46901 -0.46031 85 ft 2 kts 27°
2026-05-07 06:43 51.46891 -0.46038 84 ft 1 kts 56°
2026-05-07 06:44 51.46890 -0.46053 84 ft 1 kts 117°
2026-05-07 06:44 51.46898 -0.46065 84 ft 2 kts 158°
2026-05-07 06:44 51.46907 -0.46072 84 ft 1 kts 144°
2026-05-07 06:44 51.46908 -0.46073 84 ft 0 kts 143°
2026-05-07 06:45 51.46907 -0.46073 84 ft 0 kts 143°
2026-05-07 06:46 51.46906 -0.46071 84 ft 2 kts 143°
2026-05-07 06:47 51.46878 -0.46039 84 ft 3 kts 147°
2026-05-07 06:47 51.46857 -0.46017 84 ft 2 kts 147°
2026-05-07 06:47 51.46839 -0.45998 84 ft 3 kts 147°
2026-05-07 06:47 51.46794 -0.45981 84 ft 7 kts 182°
2026-05-07 06:48 51.46749 -0.46023 84 ft 8 kts 250°
2026-05-07 06:48 51.46746 -0.46129 84 ft 10 kts 270°
2026-05-07 06:48 51.46746 -0.46295 82 ft 19 kts 270°
2026-05-07 06:48 51.46747 -0.46501 79 ft 15 kts 272°
2026-05-07 06:49 51.46748 -0.46673 77 ft 15 kts 270°
2026-05-07 06:49 51.46748 -0.46854 77 ft 16 kts 270°
2026-05-07 06:49 51.46747 -0.47040 78 ft 16 kts 269°
2026-05-07 06:49 51.46746 -0.47224 79 ft 16 kts 271°
2026-05-07 06:50 51.46746 -0.47412 79 ft 17 kts 271°
2026-05-07 06:50 51.46744 -0.47597 81 ft 16 kts 268°
2026-05-07 06:50 51.46742 -0.47784 81 ft 17 kts 271°
2026-05-07 06:50 51.46743 -0.47978 81 ft 17 kts 270°
2026-05-07 06:51 51.46742 -0.48174 81 ft 17 kts 269°
2026-05-07 06:51 51.46740 -0.48382 78 ft 17 kts 270°
2026-05-07 06:51 51.46741 -0.48567 77 ft 13 kts 270°
2026-05-07 06:51 51.46740 -0.48694 78 ft 7 kts 266°
2026-05-07 06:52 51.46705 -0.48747 78 ft 8 kts 185°
2026-05-07 06:52 51.46634 -0.48752 77 ft 7 kts 185°
2026-05-07 06:52 51.46577 -0.48776 77 ft 9 kts 203°
2026-05-07 06:52 51.46511 -0.48783 77 ft 10 kts 151°
2026-05-07 06:53 51.46477 -0.48699 77 ft 6 kts 96°
2026-05-07 06:53 51.46478 -0.48630 78 ft 6 kts 88°
2026-05-07 06:53 51.46479 -0.48527 77 ft 20 kts 89°
2026-05-07 06:53 51.46481 -0.47917 79 ft 89 kts 90°
2026-05-07 06:54 51.46486 -0.46582 80 ft 148 kts 90°
2026-05-07 06:54 51.46498 -0.44771 417 ft 166 kts 90°
2026-05-07 06:54 51.46517 -0.42938 1050 ft 168 kts 89°
2026-05-07 06:54 51.46663 -0.41105 1733 ft 169 kts 68°
2026-05-07 06:55 51.47375 -0.39573 2234 ft 177 kts 44°
2026-05-07 06:55 51.48303 -0.38220 2696 ft 185 kts 45°
2026-05-07 06:55 51.49210 -0.36675 3129 ft 197 kts 52°
2026-05-07 06:55 51.50090 -0.34900 3552 ft 212 kts 52°
2026-05-07 06:56 51.51070 -0.32987 4000 ft 230 kts 50°
2026-05-07 06:56 51.52106 -0.30930 4513 ft 245 kts 58°
2026-05-07 06:56 51.52824 -0.28400 5002 ft 261 kts 71°
2026-05-07 06:56 51.53365 -0.25575 5779 ft 266 kts 73°
2026-05-07 06:57 51.53914 -0.22703 6576 ft 271 kts 69°
2026-05-07 06:57 51.54933 -0.20203 7299 ft 274 kts 38°
2026-05-07 06:57 51.56609 -0.18771 8088 ft 275 kts 15°
2026-05-07 06:57 51.58448 -0.18024 8883 ft 278 kts 11°
2026-05-07 06:58 51.60347 -0.17339 9652 ft 281 kts 12°
2026-05-07 06:58 51.62246 -0.16554 10381 ft 285 kts 14°
2026-05-07 06:58 51.64206 -0.15662 10822 ft 300 kts 15°
2026-05-07 06:58 51.66250 -0.14712 11135 ft 317 kts 15°
2026-05-07 06:59 51.68435 -0.13698 11440 ft 334 kts 15°
2026-05-07 06:59 51.70710 -0.12644 11771 ft 349 kts 15°
2026-05-07 06:59 51.72933 -0.11020 12292 ft 357 kts 34°
2026-05-07 06:59 51.74645 -0.08159 12924 ft 362 kts 57°
2026-05-07 07:00 51.75578 -0.04415 13536 ft 366 kts 78°
2026-05-07 07:00 51.75951 -0.00322 14157 ft 369 kts 83°
2026-05-07 07:00 51.76244 0.03809 14700 ft 373 kts 83°
2026-05-07 07:00 51.76545 0.07951 15252 ft 377 kts 82°
2026-05-07 07:01 51.76872 0.12151 15845 ft 379 kts 82°
2026-05-07 07:01 51.77209 0.16309 16757 ft 371 kts 82°
2026-05-07 07:01 51.77544 0.20417 17495 ft 368 kts 82°
2026-05-07 07:01 51.77880 0.24535 18001 ft 372 kts 82°
2026-05-07 07:02 51.78217 0.28680 18494 ft 376 kts 82°
2026-05-07 07:02 51.78559 0.32916 19014 ft 379 kts 82°
2026-05-07 07:02 51.78899 0.37156 19522 ft 382 kts 82°
2026-05-07 07:02 51.79239 0.41405 20014 ft 385 kts 82°
2026-05-07 07:03 51.79581 0.45713 20499 ft 387 kts 82°
2026-05-07 07:03 51.79921 0.50023 20970 ft 390 kts 82°
2026-05-07 07:03 51.80265 0.54390 21431 ft 393 kts 82°
2026-05-07 07:03 51.80605 0.58741 21877 ft 396 kts 82°
2026-05-07 07:04 51.80971 0.63163 22316 ft 398 kts 80°
2026-05-07 07:04 51.81481 0.67546 22744 ft 401 kts 77°
2026-05-07 07:04 51.82132 0.71924 23162 ft 403 kts 75°
2026-05-07 07:04 51.82819 0.76332 23572 ft 406 kts 75°
2026-05-07 07:05 51.83516 0.80771 23973 ft 408 kts 74°
2026-05-07 07:05 51.84292 0.85184 24366 ft 411 kts 73°
2026-05-07 07:05 51.85108 0.89646 24755 ft 413 kts 72°
2026-05-07 07:05 51.85926 0.94103 25133 ft 415 kts 72°
2026-05-07 07:06 51.86741 0.98559 25499 ft 418 kts 73°
2026-05-07 07:06 51.87561 1.03069 25857 ft 420 kts 73°
2026-05-07 07:06 51.88394 1.07661 26197 ft 423 kts 73°
2026-05-07 07:06 51.89212 1.12193 26536 ft 426 kts 73°
2026-05-07 07:07 51.90050 1.16845 26884 ft 428 kts 73°
2026-05-07 07:07 51.90882 1.21478 27213 ft 430 kts 73°
2026-05-07 07:07 51.91717 1.26144 27523 ft 433 kts 73°
2026-05-07 07:07 51.92546 1.30784 27836 ft 436 kts 73°
2026-05-07 07:08 51.93394 1.35549 28137 ft 438 kts 73°
2026-05-07 07:08 51.94229 1.40248 28434 ft 441 kts 73°
2026-05-07 07:08 51.95077 1.45036 28724 ft 443 kts 73°
2026-05-07 07:08 51.95925 1.49841 29009 ft 446 kts 73°
2026-05-07 07:09 51.96778 1.54686 29301 ft 448 kts 73°
2026-05-07 07:09 51.97634 1.59561 29569 ft 451 kts 73°
2026-05-07 07:09 51.98496 1.64490 29819 ft 454 kts 73°
2026-05-07 07:09 51.99346 1.69385 30080 ft 456 kts 75°
2026-05-07 07:10 52.00153 1.74392 30349 ft 458 kts 75°
2026-05-07 07:10 52.00932 1.79429 30602 ft 460 kts 76°
2026-05-07 07:10 52.01698 1.84428 30839 ft 462 kts 76°
2026-05-07 07:10 52.02473 1.89485 31082 ft 464 kts 76°
2026-05-07 07:11 52.03257 1.94589 31387 ft 464 kts 76°
2026-05-07 07:11 52.04038 1.99681 31733 ft 463 kts 76°
2026-05-07 07:11 52.04803 2.04675 32065 ft 462 kts 76°
2026-05-07 07:11 52.05582 2.09770 32389 ft 461 kts 75°
2026-05-07 07:12 52.06347 2.14792 32698 ft 461 kts 75°
2026-05-07 07:12 52.07117 2.19860 33006 ft 460 kts 75°
2026-05-07 07:12 52.07877 2.24876 33310 ft 460 kts 75°
2026-05-07 07:12 52.08637 2.29911 33609 ft 459 kts 75°
2026-05-07 07:13 52.09392 2.34937 33902 ft 459 kts 75°
2026-05-07 07:13 52.10149 2.39983 34207 ft 457 kts 75°
2026-05-07 07:13 52.10894 2.44964 34503 ft 457 kts 75°
2026-05-07 07:13 52.11691 2.49922 34783 ft 456 kts 72°
2026-05-07 07:14 52.12608 2.54858 35072 ft 454 kts 72°
2026-05-07 07:14 52.13543 2.59748 35337 ft 454 kts 71°
2026-05-07 07:14 52.14492 2.64694 35554 ft 454 kts 71°
2026-05-07 07:14 52.15431 2.69608 35753 ft 455 kts 72°
2026-05-07 07:15 52.16365 2.74527 35940 ft 456 kts 72°
2026-05-07 07:15 52.17299 2.79465 36116 ft 456 kts 72°
2026-05-07 07:15 52.18221 2.84358 36280 ft 457 kts 72°
2026-05-07 07:15 52.19149 2.89305 36435 ft 458 kts 72°
2026-05-07 07:16 52.20083 2.94294 36598 ft 459 kts 72°
2026-05-07 07:16 52.21006 2.99236 36756 ft 459 kts 73°
2026-05-07 07:16 52.21930 3.04202 36897 ft 460 kts 73°
2026-05-07 07:16 52.22863 3.09231 37028 ft 461 kts 73°
2026-05-07 07:17 52.24419 3.19365 37063 ft 462 kts 79°
2026-05-07 07:17 52.25231 3.29713 37065 ft 462 kts 86°
2026-05-07 07:18 52.25294 3.40147 37066 ft 462 kts 92°
2026-05-07 07:18 52.25053 3.50602 37066 ft 462 kts 92°
2026-05-07 07:19 52.24802 3.61093 37067 ft 461 kts 92°
2026-05-07 07:19 52.24553 3.71492 37066 ft 461 kts 93°
2026-05-07 07:20 52.24298 3.81919 37065 ft 460 kts 93°
2026-05-07 07:20 52.24035 3.92347 37065 ft 460 kts 93°
2026-05-07 07:21 52.23762 4.02792 37060 ft 460 kts 93°
2026-05-07 07:21 52.23481 4.13210 37051 ft 460 kts 93°
2026-05-07 07:22 52.23192 4.23629 37044 ft 460 kts 93°
2026-05-07 07:22 52.22893 4.34017 37042 ft 460 kts 93°
2026-05-07 07:23 52.22585 4.44445 37041 ft 461 kts 93°
2026-05-07 07:23 52.22268 4.54864 37041 ft 461 kts 93°
2026-05-07 07:24 52.21939 4.65329 37041 ft 461 kts 94°
2026-05-07 07:24 52.21605 4.75695 37041 ft 461 kts 94°
2026-05-07 07:25 52.21082 4.91362 37041 ft 462 kts 94°
2026-05-07 07:26 52.20723 5.01798 37041 ft 462 kts 94°
2026-05-07 07:26 52.20354 5.12231 37041 ft 462 kts 94°
2026-05-07 07:27 52.19975 5.22688 37041 ft 462 kts 94°
2026-05-07 07:27 52.19586 5.33153 37041 ft 462 kts 94°
2026-05-07 07:28 52.19190 5.43578 37042 ft 461 kts 94°
2026-05-07 07:28 52.18785 5.53961 37042 ft 460 kts 94°
2026-05-07 07:29 52.18373 5.64341 37042 ft 460 kts 94°
2026-05-07 07:29 52.17949 5.74746 37041 ft 460 kts 95°
2026-05-07 07:30 52.17517 5.85136 37041 ft 460 kts 95°
2026-05-07 07:30 52.17075 5.95521 37040 ft 459 kts 95°
2026-05-07 07:31 52.16626 6.05895 37039 ft 460 kts 95°
2026-05-07 07:31 52.16168 6.16263 37039 ft 460 kts 95°
2026-05-07 07:32 52.15699 6.26645 37039 ft 460 kts 95°
2026-05-07 07:32 52.15223 6.36995 36707 ft 453 kts 95°
2026-05-07 07:32 52.14984 6.42101 36102 ft 453 kts 95°
2026-05-07 07:33 52.14743 6.47170 35546 ft 451 kts 95°
2026-05-07 07:33 52.14500 6.52255 34985 ft 449 kts 95°
2026-05-07 07:33 52.14259 6.57288 34346 ft 449 kts 95°
2026-05-07 07:33 52.14011 6.62379 33655 ft 450 kts 95°
2026-05-07 07:34 52.13763 6.67441 32956 ft 452 kts 95°
2026-05-07 07:34 52.13541 6.72583 32234 ft 453 kts 93°
2026-05-07 07:34 52.13481 6.77718 31500 ft 455 kts 90°
2026-05-07 07:34 52.13604 6.82821 30749 ft 456 kts 86°
2026-05-07 07:35 52.13834 6.87932 30182 ft 453 kts 86°
2026-05-07 07:35 52.14096 6.93024 29700 ft 448 kts 85°
2026-05-07 07:35 52.14361 6.98037 29184 ft 444 kts 85°
2026-05-07 07:35 52.14617 7.02988 28660 ft 440 kts 85°
2026-05-07 07:36 52.14864 7.07891 28146 ft 436 kts 86°
2026-05-07 07:36 52.15108 7.12791 27608 ft 433 kts 86°
2026-05-07 07:36 52.15347 7.17642 27080 ft 429 kts 86°
2026-05-07 07:36 52.15582 7.22457 26557 ft 426 kts 86°
2026-05-07 07:37 52.15815 7.27272 26031 ft 422 kts 86°
2026-05-07 07:37 52.16040 7.31978 25522 ft 419 kts 86°
2026-05-07 07:37 52.16264 7.36706 25006 ft 415 kts 86°
2026-05-07 07:37 52.16483 7.41374 24479 ft 412 kts 86°
2026-05-07 07:38 52.16697 7.45963 23969 ft 409 kts 86°
2026-05-07 07:38 52.16909 7.50560 23464 ft 406 kts 86°
2026-05-07 07:38 52.17118 7.55147 22962 ft 403 kts 86°
2026-05-07 07:38 52.17321 7.59645 22483 ft 399 kts 86°
2026-05-07 07:39 52.17522 7.64119 21996 ft 396 kts 86°
2026-05-07 07:39 52.17720 7.68597 21505 ft 393 kts 87°
2026-05-07 07:39 52.17956 7.72963 21039 ft 390 kts 82°
2026-05-07 07:39 52.18528 7.77269 20571 ft 387 kts 73°
2026-05-07 07:40 52.19458 7.81353 20116 ft 384 kts 67°
2026-05-07 07:40 52.20540 7.85305 19655 ft 381 kts 65°
2026-05-07 07:40 52.21648 7.89234 19186 ft 378 kts 65°
2026-05-07 07:40 52.22728 7.93073 18734 ft 375 kts 65°
2026-05-07 07:41 52.23801 7.96917 18297 ft 372 kts 65°
2026-05-07 07:41 52.24869 8.00772 17844 ft 370 kts 66°
2026-05-07 07:41 52.25917 8.04571 17402 ft 367 kts 66°
2026-05-07 07:41 52.26958 8.08364 16975 ft 364 kts 65°
2026-05-07 07:42 52.27987 8.12118 16553 ft 360 kts 65°
2026-05-07 07:42 52.28998 8.15819 16135 ft 357 kts 65°
2026-05-07 07:42 52.30006 8.19509 15717 ft 354 kts 65°
2026-05-07 07:42 52.31001 8.23160 15293 ft 351 kts 65°
2026-05-07 07:43 52.31993 8.26805 14874 ft 349 kts 65°
2026-05-07 07:43 52.32970 8.30401 14464 ft 346 kts 65°
2026-05-07 07:43 52.33933 8.33955 14057 ft 343 kts 65°
2026-05-07 07:43 52.34893 8.37499 13648 ft 340 kts 65°
2026-05-07 07:44 52.35844 8.41045 13237 ft 338 kts 66°
2026-05-07 07:44 52.36664 8.44611 12833 ft 335 kts 70°
2026-05-07 07:44 52.37366 8.48193 12435 ft 333 kts 71°
2026-05-07 07:44 52.38055 8.51830 12025 ft 331 kts 71°
2026-05-07 07:45 52.38731 8.55411 11669 ft 326 kts 71°
2026-05-07 07:45 52.39386 8.58867 11500 ft 317 kts 71°
2026-05-07 07:45 52.40032 8.62280 11329 ft 307 kts 71°
2026-05-07 07:45 52.40652 8.65556 11166 ft 299 kts 72°
2026-05-07 07:46 52.41265 8.68799 11000 ft 291 kts 72°
2026-05-07 07:46 52.41853 8.71916 10745 ft 287 kts 72°
2026-05-07 07:46 52.42432 8.74993 10426 ft 285 kts 72°
2026-05-07 07:46 52.43019 8.78113 10105 ft 283 kts 72°
2026-05-07 07:47 52.43594 8.81174 9797 ft 281 kts 72°
2026-05-07 07:47 52.44162 8.84203 9493 ft 279 kts 72°
2026-05-07 07:47 52.44730 8.87245 9180 ft 278 kts 73°
2026-05-07 07:47 52.45293 8.90261 8872 ft 276 kts 73°
2026-05-07 07:48 52.45850 8.93255 8562 ft 274 kts 72°
2026-05-07 07:48 52.46415 8.96287 8229 ft 273 kts 73°
2026-05-07 07:48 52.46918 8.99247 7897 ft 273 kts 78°
2026-05-07 07:48 52.47129 9.02341 7566 ft 268 kts 89°
2026-05-07 07:49 52.47101 9.05347 6995 ft 268 kts 91°
2026-05-07 07:49 52.47018 9.08431 6455 ft 269 kts 92°
2026-05-07 07:49 52.46934 9.11481 6078 ft 266 kts 92°
2026-05-07 07:49 52.46853 9.14470 5644 ft 265 kts 91°
2026-05-07 07:50 52.46780 9.17476 5377 ft 262 kts 91°
2026-05-07 07:50 52.46709 9.20429 5229 ft 254 kts 91°
2026-05-07 07:50 52.46639 9.23288 5084 ft 246 kts 91°
2026-05-07 07:50 52.46573 9.25987 4867 ft 233 kts 90°
2026-05-07 07:51 52.46508 9.28595 4636 ft 223 kts 90°
2026-05-07 07:51 52.46457 9.30951 4465 ft 215 kts 91°
2026-05-07 07:51 52.46435 9.33364 4205 ft 213 kts 88°
2026-05-07 07:51 52.46424 9.35781 3924 ft 214 kts 89°
2026-05-07 07:52 52.46383 9.38238 3641 ft 216 kts 89°
2026-05-07 07:52 52.46316 9.40714 3359 ft 218 kts 91°
2026-05-07 07:52 52.46237 9.43202 3068 ft 220 kts 89°
2026-05-07 07:52 52.46155 9.45702 2774 ft 214 kts 90°
2026-05-07 07:53 52.46076 9.48070 2478 ft 207 kts 89°
2026-05-07 07:53 52.46002 9.50416 2203 ft 201 kts 89°
2026-05-07 07:53 52.45935 9.52654 1949 ft 195 kts 90°
2026-05-07 07:53 52.45869 9.54854 1734 ft 182 kts 91°
2026-05-07 07:54 52.45810 9.56817 1522 ft 167 kts 91°
2026-05-07 07:54 52.45758 9.58623 1301 ft 154 kts 91°
2026-05-07 07:54 52.45709 9.60323 1058 ft 143 kts 91°
2026-05-07 07:54 52.45665 9.61867 861 ft 131 kts 92°
2026-05-07 07:55 52.45621 9.63364 692 ft 130 kts 90°
2026-05-07 07:55 52.45577 9.64836 537 ft 130 kts 90°
2026-05-07 07:55 52.45538 9.66328 342 ft 132 kts 91°
2026-05-07 07:55 52.45495 9.67825 200 ft 130 kts 91°
2026-05-07 07:56 52.45460 9.69190 170 ft 101 kts 94°
2026-05-07 07:56 52.45434 9.70059 169 ft 51 kts 93°
2026-05-07 07:56 52.45423 9.70427 174 ft 20 kts 93°
2026-05-07 07:56 52.45421 9.70616 175 ft 11 kts 77°
2026-05-07 07:57 52.45484 9.70669 176 ft 11 kts
2026-05-07 07:57 52.45554 9.70668 176 ft 9 kts 347°
2026-05-07 07:57 52.45583 9.70571 176 ft 11 kts 272°
2026-05-07 07:57 52.45587 9.70426 174 ft 13 kts 274°
2026-05-07 07:58 52.45591 9.70264 174 ft 14 kts 272°
2026-05-07 07:58 52.45596 9.70107 175 ft 12 kts 272°
2026-05-07 07:58 52.45600 9.69955 173 ft 13 kts 273°
2026-05-07 07:58 52.45613 9.69856 174 ft 7 kts 308°
2026-05-07 07:59 52.45655 9.69829 176 ft 6 kts
2026-05-07 07:59 52.45699 9.69832 177 ft 5 kts
2026-05-07 07:59 52.45730 9.69848 178 ft 4 kts 39°
2026-05-07 07:59 52.45748 9.69881 179 ft 3 kts 52°
2026-05-07 08:00 52.45763 9.69914 180 ft 3 kts 52°
2026-05-07 08:00 52.45774 9.69935 180 ft 0 kts 51°
2026-05-07 08:00 52.45775 9.69936 180 ft 0 kts 51°